TimeHADT,TemperatureF,Dew PointF,Humidity,Sea Level PressureIn,VisibilityMPH,Wind Direction,Wind SpeedMPH,Gust SpeedMPH,PrecipitationIn,Events,Conditions,WindDirDegrees,DateUTC
12:16 AM,37.4,35.6,93,30.41,10.0,WNW,11.5,-,N/A,,Overcast,300,2013-04-20 09:16:00
12:36 AM,37.4,35.6,93,30.41,10.0,West,6.9,-,N/A,,Overcast,280,2013-04-20 09:36:00
12:56 AM,37.4,35.6,93,30.41,10.0,NW,8.1,-,N/A,,Overcast,320,2013-04-20 09:56:00
1:16 AM,37.4,35.6,93,30.41,10.0,WNW,13.8,-,N/A,,Overcast,300,2013-04-20 10:16:00
1:36 AM,37.4,35.6,93,30.41,10.0,WNW,13.8,18.4,N/A,,Overcast,300,2013-04-20 10:36:00
1:56 AM,37.4,35.6,93,30.41,10.0,WNW,15.0,-,N/A,,Overcast,300,2013-04-20 10:56:00
2:16 AM,37.4,35.6,93,30.42,10.0,WNW,11.5,-,N/A,,Overcast,300,2013-04-20 11:16:00
2:36 AM,37.4,35.6,93,30.42,10.0,WNW,11.5,-,N/A,,Overcast,290,2013-04-20 11:36:00
2:56 AM,37.4,33.8,87,30.42,10.0,WNW,9.2,-,N/A,,Overcast,300,2013-04-20 11:56:00
3:16 AM,37.4,35.6,93,30.42,10.0,NW,9.2,-,N/A,,Overcast,310,2013-04-20 12:16:00
3:36 AM,37.4,33.8,87,30.41,10.0,NW,10.4,-,N/A,,Overcast,320,2013-04-20 12:36:00
3:56 AM,37.4,35.6,93,30.41,4.0,WNW,11.5,-,N/A,,Overcast,290,2013-04-20 12:56:00
4:16 AM,39.2,35.6,87,30.41,3.0,WNW,13.8,18.4,N/A,,Overcast,290,2013-04-20 13:16:00
4:36 AM,39.2,35.6,87,30.40,3.0,WNW,16.1,-,N/A,,Overcast,300,2013-04-20 13:36:00
4:56 AM,39.2,35.6,87,30.40,4.0,WNW,13.8,20.7,N/A,,Overcast,300,2013-04-20 13:56:00
5:16 AM,39.2,37.4,93,30.41,4.0,WNW,16.1,-,N/A,,Overcast,290,2013-04-20 14:16:00
5:36 AM,39.2,37.4,93,30.40,5.0,WNW,18.4,-,N/A,,Overcast,300,2013-04-20 14:36:00
5:56 AM,39.2,35.6,87,30.40,3.0,WNW,17.3,25.3,N/A,,Overcast,300,2013-04-20 14:56:00
6:16 AM,39.2,37.4,93,30.40,3.0,WNW,10.4,-,N/A,,Overcast,300,2013-04-20 15:16:00
6:36 AM,39.2,35.6,87,30.39,9.0,NW,9.2,-,N/A,,Mostly Cloudy,310,2013-04-20 15:36:00
6:56 AM,39.2,35.6,87,30.39,10.0,WNW,9.2,-,N/A,,Mostly Cloudy,300,2013-04-20 15:56:00
7:16 AM,39.2,35.6,87,30.39,10.0,NNW,12.7,-,N/A,,Overcast,330,2013-04-20 16:16:00
7:36 AM,39.2,35.6,87,30.39,10.0,NW,10.4,-,N/A,,Overcast,320,2013-04-20 16:36:00
7:56 AM,39.2,37.4,93,30.39,10.0,NNW,12.7,19.6,N/A,,Overcast,330,2013-04-20 16:56:00
8:16 AM,39.2,35.6,87,30.39,5.0,WNW,15.0,-,N/A,,Overcast,300,2013-04-20 17:16:00
8:36 AM,39.2,35.6,87,30.40,9.0,NW,12.7,-,N/A,,Mostly Cloudy,310,2013-04-20 17:36:00
8:56 AM,39.2,35.6,87,30.40,10.0,WNW,12.7,-,N/A,,Overcast,300,2013-04-20 17:56:00
9:16 AM,39.2,35.6,87,30.40,2.0,WNW,18.4,24.2,N/A,,Overcast,300,2013-04-20 18:16:00
9:36 AM,39.2,35.6,87,30.41,1.8,WNW,19.6,23.0,N/A,,Overcast,300,2013-04-20 18:36:00
9:56 AM,39.2,35.6,87,30.41,2.0,WNW,17.3,21.9,N/A,,Overcast,300,2013-04-20 18:56:00
10:16 AM,39.2,35.6,87,30.40,1.8,WNW,18.4,24.2,N/A,,Overcast,290,2013-04-20 19:16:00
10:36 AM,37.4,35.6,93,30.39,4.0,NW,23.0,27.6,N/A,,Overcast,310,2013-04-20 19:36:00
10:56 AM,37.4,35.6,93,30.41,10.0,NW,20.7,26.5,N/A,,Overcast,310,2013-04-20 19:56:00
11:16 AM,37.4,33.8,87,30.41,9.0,NNW,18.4,23.0,N/A,,Overcast,330,2013-04-20 20:16:00
11:36 AM,37.4,35.6,93,30.40,3.0,NW,15.0,-,N/A,,Overcast,310,2013-04-20 20:36:00
11:56 AM,37.4,33.8,87,30.40,5.0,NW,15.0,-,N/A,,Overcast,310,2013-04-20 20:56:00
12:16 PM,37.4,35.6,93,30.39,6.0,NW,18.4,23.0,N/A,,Overcast,310,2013-04-20 21:16:00
12:36 PM,37.4,35.6,93,30.39,9.0,NW,21.9,26.5,N/A,,Overcast,310,2013-04-20 21:36:00
12:56 PM,39.2,35.6,87,30.39,8.0,NW,20.7,26.5,N/A,,Overcast,310,2013-04-20 21:56:00
1:16 PM,39.2,35.6,87,30.38,9.0,NW,24.2,31.1,N/A,,Overcast,310,2013-04-20 22:16:00
1:36 PM,39.2,35.6,87,30.38,10.0,WNW,25.3,31.1,N/A,,Overcast,300,2013-04-20 22:36:00
1:56 PM,39.2,35.6,87,30.38,10.0,WNW,23.0,29.9,N/A,,Overcast,300,2013-04-20 22:56:00
2:16 PM,39.2,33.8,81,30.38,10.0,NW,20.7,26.5,N/A,,Mostly Cloudy,310,2013-04-20 23:16:00
2:36 PM,39.2,33.8,81,30.37,10.0,NW,17.3,25.3,N/A,,Overcast,310,2013-04-20 23:36:00
2:56 PM,39.2,33.8,81,30.37,8.0,NW,19.6,28.8,N/A,,Overcast,320,2013-04-20 23:56:00
3:16 PM,39.2,33.8,81,30.37,10.0,NW,21.9,25.3,N/A,,Mostly Cloudy,320,2013-04-21 00:16:00
3:36 PM,39.2,32.0,75,30.37,10.0,NW,18.4,29.9,N/A,,Overcast,320,2013-04-21 00:36:00
3:56 PM,39.2,32.0,75,30.37,10.0,NNW,19.6,-,N/A,,Overcast,330,2013-04-21 00:56:00
4:16 PM,-9999,-9999,N/A,30.35,8.0,NNW,21.9,-,N/A,,Overcast,340,2013-04-21 01:16:00
4:36 PM,39.2,32.0,75,30.36,10.0,NNW,18.4,28.8,N/A,,Mostly Cloudy,330,2013-04-21 01:36:00
4:56 PM,-9999,-9999,N/A,30.35,10.0,NNW,20.7,33.4,N/A,,Overcast,340,2013-04-21 01:56:00
5:16 PM,-9999,-9999,N/A,30.35,9.0,NNW,19.6,29.9,N/A,,Overcast,330,2013-04-21 02:16:00
5:36 PM,37.4,28.4,70,30.35,10.0,NW,20.7,28.8,N/A,,Overcast,320,2013-04-21 02:36:00
5:56 PM,37.4,28.4,70,30.35,10.0,NNW,20.7,24.2,N/A,,Overcast,330,2013-04-21 02:56:00
6:16 PM,39.2,26.6,61,30.35,10.0,NNW,18.4,25.3,N/A,,Overcast,340,2013-04-21 03:16:00
6:36 PM,37.4,26.6,65,30.35,10.0,NNW,24.2,-,N/A,,Overcast,330,2013-04-21 03:36:00
6:56 PM,37.4,26.6,65,30.35,10.0,NNW,19.6,23.0,N/A,,Overcast,330,2013-04-21 03:56:00
7:16 PM,37.4,26.6,65,30.35,10.0,NW,18.4,-,N/A,,Overcast,310,2013-04-21 04:16:00
7:36 PM,37.4,26.6,65,30.35,10.0,NNW,17.3,25.3,N/A,,Overcast,330,2013-04-21 04:36:00
7:56 PM,37.4,26.6,65,30.35,10.0,NNW,21.9,29.9,N/A,,Overcast,330,2013-04-21 04:56:00
8:16 PM,37.4,28.4,70,30.35,10.0,NNW,23.0,-,N/A,,Overcast,330,2013-04-21 05:16:00
8:36 PM,37.4,28.4,70,30.35,10.0,NNW,20.7,25.3,N/A,,Overcast,330,2013-04-21 05:36:00
8:56 PM,35.6,30.2,81,30.35,10.0,NNW,19.6,27.6,N/A,,Overcast,330,2013-04-21 05:56:00
9:16 PM,35.6,30.2,81,30.36,7.0,NNW,19.6,27.6,N/A,,Overcast,330,2013-04-21 06:16:00
9:36 PM,35.6,28.4,75,30.36,10.0,NNW,20.7,27.6,N/A,,Overcast,330,2013-04-21 06:36:00
9:56 PM,35.6,28.4,75,30.37,10.0,NNW,21.9,26.5,N/A,,Overcast,330,2013-04-21 06:56:00
10:16 PM,35.6,28.4,75,30.37,10.0,NNW,20.7,26.5,N/A,,Overcast,340,2013-04-21 07:16:00
10:36 PM,35.6,28.4,75,30.38,10.0,NNW,20.7,26.5,N/A,,Mostly Cloudy,330,2013-04-21 07:36:00
10:56 PM,35.6,30.2,81,30.38,7.0,NNW,16.1,25.3,N/A,,Mostly Cloudy,330,2013-04-21 07:56:00
11:16 PM,35.6,28.4,75,30.38,10.0,NNW,24.2,29.9,N/A,,Overcast,340,2013-04-21 08:16:00
11:36 PM,35.6,24.8,65,30.38,10.0,NNW,16.1,25.3,N/A,,Overcast,340,2013-04-21 08:36:00
11:56 PM,35.6,26.6,70,30.38,10.0,North,13.8,21.9,N/A,,Overcast,350,2013-04-21 08:56:00